Location: Pasadena, ca
(34.1243°N, 118.1037°W)
Time: 23:23:50
(UTC-08:00)

Tiangong 2 - Pass Details

Date: 13 November 2017
Orbit: 386 x 392 km, 42.8° (Epoch: 21 November)

Event Time Altitude Azimuth Distance (km) Brightness Sun altitude
Rises 19:00:47 0° 277° (W) 2,267 6.2 -27.2°
Reaches altitude 10° 19:04:08 10° 239° (WSW) 1,406 4.7 -27.9°
Enters shadow 19:04:57 11° 224° (SW) 1,348 4.4 -28.1°
